SCP
0 0 0 0 0 0 0 0 0 0 0 0 0 0 0 0 0 0 1 1 1 1 1 1 1 1 1 2 2 2 2 2 2 2 2 2 2 2 2 2 2 2 1 1
0 0 0 0 0 0 0 0 0 0 0 0 0 0 0 0 0 0 0 0 1 1 1 1 0 0 1 1 2 2 2 2 2 2 2 2 2 2 2 2 2 1 1 1
0 0 0 0 0 0 0 0 0 0 0 0 0 0 0 0 0 0 0 0 0 0 1 0 0 0 1 1 1 1 1 1 2 2 2 2 2 2 2 2 1 1 1 1
0 0 0 0 0 0 0 0 0 0 0 0 0 0 0 0 0 0 0 0 0 0 0 0 0 0 0 0 0 0 0 1 1 2 2 3 2 2 2 2 1 1 1 1
0 0 0 0 0 0 0 0 0 0 0 0 0 0 0 0 0 0 0 0 0 0 0 0 0 0 0 0 0 0 0 0 1 1 2 3 3 3 2 2 2 2 2 2
0 0 0 0 0 0 0 0 0 0 0 0 0 0 0 0 0 0 0 0 0 0 0 0 0 0 0 0 0 0 0 0 0 0 1 2 3 3 3 3 3 3 2 2
0 0 0 0 0 0 0 0 0 0 0 0 0 0 0 0 0 0 0 0 0 0 0 0 0 0 0 0 0 0 0 0 0 0 0 1 2 3 4 4 4 4 3 3
0 0 0 0 0 0 0 0 0 0 0 0 0 0 0 0 0 0 0 0 0 0 0 0 0 0 0 0 0 0 0 0 0 0 0 0 1 3 4 4 5 4 3 2
0 0 0 0 0 0 0 0 0 0 0 0 0 0 0 0 0 0 0 0 0 0 0 0 0 0 0 0 0 0 0 0 0 0 0 0 1 2 4 5 5 4 2 2
0 0 0 0 0 0 0 0 0 0 0 0 0 0 0 0 0 0 0 0 0 0 0 0 0 0 0 0 0 0 0 0 0 0 0 0 1 3 4 4 3 2 1 1
0 0 0 0 0 0 0 0 0 0 0 0 0 0 0 0 0 0 0 0 0 0 0 0 0 0 0 0 0 0 0 0 0 0 0 1 2 3 3 3 2 1 0 0
0 0 0 0 0 0 0 0 0 0 0 0 0 0 0 0 0 0 0 0 0 0 0 0 0 0 0 0 0 0 0 0 0 0 1 2 2 2 2 1 0 0 0 0
0 0 0 0 0 0 0 0 0 0 0 0 0 0 0 0 0 0 0 0 0 0 0 0 0 0 0 0 0 0 0 0 0 1 1 1 1 1 0 0 0 0 0 0
0 0 0 0 0 0 0 0 0 0 0 0 0 0 0 0 0 0 0 0 0 0 0 0 0 0 0 0 0 0 0 0 0 0 1 0 0 0 0 0 0 0 0 1
0 0 0 0 0 0 0 0 0 0 0 0 0 0 0 0 0 0 0 0 0 0 0 0 0 0 0 0 0 0 0 0 0 0 0 0 0 0 0 0 0 0 1 1
0 0 0 0 0 0 0 0 0 0 0 0 0 0 0 0 0 0 0 0 0 0 0 0 0 0 0 0 0 0 0 0 0 0 0 0 0 0 0 0 0 0 1 1
0 0 0 0 0 0 0 0 0 0 0 0 0 0 0 0 0 0 0 0 0 0 0 0 0 0 0 0 0 0 0 0 0 0 0 0 0 0 0 0 0 0 0 0
0 0 0 0 0 0 0 0 0 0 0 0 0 0 0 0 0 0 0 0 0 0 0 0 0 0 0 0 0 0 0 0 0 0 0 0 0 0 0 0 0 0 0 0
0 0 0 0 0 0 0 0 0 0 0 0 0 0 0 0 0 0 0 0 0 0 0 0 0 0 0 0 0 0 0 0 0 0 0 0 0 0 0 0 0 0 0 0
0 0 0 0 0 0 0 0 0 0 0 0 0 0 0 0 0 0 0 0 0 0 0 0 0 0 0 0 0 0 0 0 0 0 0 0 0 0 0 0 0 0 0 0
0 0 0 0 0 0 0 0 0 0 0 0 0 0 0 0 0 0 0 0 0 0 0 0 0 0 0 0 0 0 0 0 0 0 0 0 0 0 0 0 0 0 0 0
0 0 0 0 0 0 0 0 0 0 0 0 0 0 0 0 0 0 0 0 0 0 0 0 0 0 0 0 0 0 0 0 0 0 0 0 0 0 0 0 0 0 0 0
0 0 0 0 0 0 0 0 0 0 0 0 0 0 0 0 0 0 0 0 0 0 0 0 0 0 0 0 0 0 0 0 0 0 0 0 0 0 0 0 0 0 0 0
0 0 0 0 0 0 0 0 0 0 0 0 0 0 0 0 0 0 0 0 0 0 0 0 0 0 0 0 0 0 0 0 0 0 0 0 0 0 0 0 0 0 0 0
0 0 0 0 0 0 0 0 0 0 0 0 0 0 0 0 0 0 0 0 0 0 0 0 0 0 0 0 0 0 0 0 0 0 0 0 0 0 0 0 0 0 0 0
0 0 0 0 0 0 0 0 0 0 0 0 0 0 0 0 0 0 0 0 0 0 0 0 0 0 0 0 0 0 0 0 0 0 0 0 0 0 0 0 0 0 0 0
Wind_Speed
2 4 6 7 7 3 5 6 7 5 2 6 10 11 8 7 9 9 8 8 7 6 4 2 1 1 1 1 1 1 1 1 1 0 1 1 1 1 1 1 1 1 2 2
4 6 5 4 5 4 6 6 6 3 2 5 8 11 9 8 10 10 9 9 8 6 5 3 2 2 1 1 1 1 0 0 1 1 1 1 1 1 1 1 1 1 2 2
6 2 4 6 6 6 6 7 6 4 2 4 6 9 9 7 8 8 8 8 8 7 6 5 3 2 1 1 0 0 0 0 1 1 1 1 0 1 0 1 1 1 2 2
4 2 4 6 6 7 6 4 4 4 5 3 4 7 6 7 7 9 9 8 8 7 6 5 4 3 2 1 0 0 0 0 0 1 1 1 1 1 1 1 1 2 1 2
4 3 5 6 5 6 3 2 3 4 4 4 5 7 5 5 8 9 8 8 7 6 5 5 4 3 2 1 0 0 0 0 0 1 1 1 2 1 1 1 1 2 1 2
1 1 2 2 2 3 5 4 2 2 3 7 7 8 7 5 6 5 6 6 6 4 4 3 3 2 1 1 0 0 1 1 1 1 1 1 1 1 1 1 2 2 1 2
2 3 2 2 4 4 5 4 3 4 6 6 4 8 7 1 2 4 4 4 3 3 3 3 2 2 1 1 1 0 0 0 1 2 2 2 2 2 3 2 2 2 2 2
5 4 5 4 4 6 7 6 5 5 5 3 4 9 3 1 1 2 2 2 2 3 3 2 1 1 1 1 1 1 1 1 1 1 2 2 1 2 2 3 2 2 2 3
5 3 2 1 1 4 6 6 1 0 1 4 6 6 5 2 2 2 2 2 2 1 1 1 1 1 1 1 1 1 1 1 1 1 2 2 2 2 3 3 3 2 2 3
2 3 1 1 2 1 2 5 4 4 5 6 5 6 4 4 3 2 2 1 1 1 1 1 1 1 1 1 1 1 1 2 2 2 2 2 2 2 3 3 3 3 3 3
2 3 2 3 6 6 5 5 4 3 3 5 5 4 0 3 3 3 2 1 1 1 1 1 1 1 1 0 0 1 1 2 2 2 2 2 2 2 3 2 3 3 3 3
2 2 3 3 0 3 4 6 7 5 5 5 5 4 2 1 1 1 1 1 2 2 1 1 1 0 1 1 1 1 1 2 2 2 2 2 2 2 2 3 3 3 3 3
4 4 3 3 3 3 4 5 4 2 2 6 7 5 3 1 1 1 2 2 2 1 1 1 1 0 1 1 1 1 2 2 2 2 2 2 2 3 3 3 3 3 4 3
3 3 5 6 1 4 5 6 7 6 6 8 11 9 5 4 3 3 3 3 2 1 1 2 2 1 1 1 1 2 2 2 2 2 2 2 3 3 3 3 3 3 3 3
2 3 3 3 3 3 5 7 9 11 11 10 9 9 10 6 5 4 4 3 3 2 2 2 2 2 2 2 2 2 2 2 2 2 2 2 3 3 3 3 3 4 3 3
1 3 2 3 2 3 6 9 10 12 12 12 11 12 8 6 4 5 5 4 4 4 3 3 3 3 3 2 2 2 2 2 2 2 2 2 2 3 3 3 3 3 3 3
4 4 4 3 1 3 9 9 10 9 9 10 12 10 5 5 6 6 5 5 5 4 4 4 3 3 3 3 2 2 2 2 2 2 2 3 3 3 3 3 3 3 3 3
5 4 2 2 2 8 3 1 5 8 8 8 8 6 5 6 6 5 5 6 5 5 4 4 4 3 3 2 2 2 2 2 2 2 3 3 3 3 3 3 3 3 3 3
3 4 3 3 5 8 3 2 3 5 6 6 8 7 5 4 4 5 4 4 5 5 4 4 3 3 3 2 2 2 2 2 2 3 3 3 3 3 3 3 3 3 3 3
1 2 3 4 5 7 1 2 2 2 5 3 6 6 4 2 4 2 0 2 3 3 2 2 2 2 2 2 2 2 3 3 3 3 3 3 3 4 4 4 4 3 3 3
4 4 6 6 7 7 0 2 4 5 3 1 4 4 4 5 4 3 2 3 2 2 2 2 2 2 2 2 2 3 3 4 3 3 3 3 3 4 4 4 3 3 3 3
7 7 7 6 7 7 3 5 6 3 2 1 3 3 4 4 4 3 3 3 3 2 2 2 2 2 2 2 3 3 4 3 2 3 3 3 3 3 3 3 3 3 3 3
7 5 4 7 5 1 4 4 3 1 2 3 3 3 3 4 4 4 3 3 3 3 3 2 2 3 2 2 3 4 3 2 2 2 3 3 3 3 3 3 3 3 3 3
4 2 4 5 6 4 5 5 4 4 4 4 4 3 3 4 4 4 4 3 3 3 3 3 3 3 3 2 3 3 3 2 2 3 3 3 3 3 3 3 3 3 3 3
4 6 5 6 5 4 5 6 5 4 4 3 3 3 3 4 4 4 4 4 3 3 3 3 3 3 4 3 3 3 2 2 2 3 3 3 3 3 3 3 3 4 4 4
6 7 7 6 4 4 4 3 3 4 4 4 4 4 3 4 4 4 4 3 3 3 3 3 3 4 4 3 3 3 2 2 3 3 3 2 2 2 3 3 3 4 5 6
Wind_Direction
164 188 200 199 210 232 200 211 223 223 222 235 238 246 242 224 222 224 220 216 217 218 212 191 185 158 131 98 76 57 40 20 354 318 308 273 260 263 246 230 253 245 242 236
169 216 216 201 192 192 198 212 224 221 229 250 256 258 249 230 227 228 226 221 217 213 207 201 200 188 170 136 101 75 32 358 328 318 315 290 272 271 280 274 248 247 245 247
197 153 182 185 189 200 216 224 223 224 240 244 269 256 229 216 220 224 228 224 219 215 212 209 206 200 173 147 157 201 55 311 326 342 334 302 219 217 242 286 276 268 259 243
204 192 190 192 202 212 222 223 219 213 226 237 244 265 226 207 215 218 217 218 220 214 213 209 207 205 204 200 170 216 179 133 338 315 284 280 258 254 271 278 289 298 288 266
182 181 191 205 211 210 193 163 205 220 228 250 225 250 246 204 227 220 213 213 214 214 213 211 209 204 208 180 127 79 59 82 125 262 264 266 274 278 276 281 291 311 309 302
156 194 230 189 140 176 147 139 132 195 220 242 219 230 253 207 222 219 209 209 208 209 210 209 207 200 190 159 107 50 53 16 346 301 281 283 281 278 263 274 287 301 311 302
183 189 178 171 153 164 189 182 198 205 214 234 172 230 252 220 230 243 237 225 216 211 208 203 203 202 198 186 174 222 206 319 335 318 297 292 278 268 260 263 266 288 299 294
192 200 184 193 202 187 195 207 219 230 232 224 197 235 247 59 291 259 249 235 217 203 200 204 215 223 215 212 213 231 250 284 298 305 311 311 294 283 282 276 274 274 282 293
201 183 110 172 249 191 177 203 247 182 300 255 231 248 264 220 215 201 188 179 202 213 214 219 221 234 242 226 239 247 254 274 294 304 303 302 313 300 291 287 279 278 284 294
190 177 179 170 168 84 251 157 169 199 219 240 240 241 237 204 203 176 179 200 234 254 273 267 255 266 283 277 260 264 268 277 299 313 313 304 296 289 288 292 295 295 294 291
185 169 160 187 205 191 171 179 197 200 252 251 251 239 157 215 195 198 210 247 286 284 271 265 295 316 326 312 278 282 290 295 310 319 313 306 300 297 296 294 296 300 302 300
170 176 194 217 339 298 238 212 195 208 213 235 263 267 81 219 182 206 252 298 318 312 296 276 285 292 294 296 305 308 302 300 306 312 307 310 309 303 303 305 305 302 299 300
159 167 173 187 191 203 228 217 211 214 207 218 235 247 106 148 177 241 286 302 314 321 319 288 272 280 304 303 309 315 313 311 313 309 304 316 311 308 307 308 306 304 301 304
159 193 224 234 230 175 210 212 200 196 218 229 237 254 250 248 268 283 287 289 286 280 278 281 288 292 293 295 302 308 316 320 314 307 305 312 313 315 312 306 303 303 303 307
179 212 225 267 276 228 237 227 211 216 228 239 249 249 263 265 270 277 276 269 266 266 269 275 284 285 280 290 305 309 309 315 315 311 310 315 317 317 315 309 305 303 304 306
165 191 188 243 254 252 255 249 232 235 238 243 256 263 270 270 264 265 264 254 254 262 265 268 274 274 269 274 287 298 303 311 310 304 306 314 313 315 313 312 308 306 306 305
167 164 189 228 280 268 253 237 220 224 226 225 237 252 261 255 255 255 260 256 250 257 262 262 266 268 267 266 268 273 285 295 293 293 298 304 304 308 312 313 308 307 305 305
162 164 186 196 186 237 250 86 216 225 239 231 251 264 260 264 276 271 259 247 248 258 262 262 263 266 266 263 258 260 261 263 270 280 288 296 300 303 304 304 306 309 307 307
184 172 177 195 234 263 258 190 187 214 251 228 239 254 270 297 283 256 231 238 254 258 261 260 258 258 256 253 246 238 247 254 259 268 280 292 295 293 296 300 302 305 305 307
119 173 189 195 231 245 256 123 156 208 253 212 222 240 253 250 252 259 180 265 263 257 258 257 256 252 246 245 231 229 245 252 258 267 275 282 282 282 285 292 298 298 293 294
169 184 207 215 237 260 278 145 170 212 263 156 214 228 223 236 267 313 302 283 261 254 261 261 253 251 250 242 224 231 244 254 268 277 278 279 278 278 279 285 287 290 289 290
186 185 196 200 223 244 140 159 204 262 7 233 234 233 240 261 279 277 272 267 261 265 268 268 267 273 268 243 229 237 250 268 278 276 276 278 282 284 281 281 283 283 285 287
211 208 200 207 227 340 174 213 248 295 257 264 259 251 243 254 263 265 268 270 270 273 276 278 266 278 277 255 242 249 265 275 270 271 274 280 285 285 280 277 278 280 280 280
213 214 219 243 253 251 235 248 260 255 262 271 264 256 239 243 252 260 267 275 280 279 276 270 265 269 278 278 267 262 267 258 249 257 270 277 279 285 285 280 272 272 271 274
199 181 211 245 271 278 244 240 255 261 266 269 268 256 246 240 248 255 264 271 273 274 271 263 260 266 273 281 279 277 263 243 241 253 263 270 273 276 283 282 281 277 272 275
190 191 203 235 226 231 257 245 247 250 256 257 260 263 257 246 247 256 262 269 271 271 268 262 261 260 266 274 278 278 261 239 237 247 254 259 266 273 278 284 293 290 279 289